Retour au catalogue

STARLINK-34435

ActifCommunicationsVLEO
NORAD 64602·PAYLOAD·🇺🇸 United States

Lancé Jun 25, 2025 depuis Cape Canaveral Space Force Station

Loading…

Prochains Passages (prochaines 24 heures)

TLE

FraisSource: CelesTrak SupGP

Époque: Sep 14, 2026, 22:48 UTC

1 64602C 25137J   26257.95048611 -.00049708  00000+0 -14679-2 0  2577
2 64602  53.1566 173.6004 0001268  91.5664  43.7223 15.34431709    14

Suivez STARLINK-34435 en temps réel avec AllMySat

Download on the App Store